Location: Newark
(41.8083°N, 72.2500°W)
Time: 18:52:45
(UTC+00:00)

deb Explorer IX - Pass Details

Date: 05 December 2021
Orbit: 544 x 1082 km, 38.8° (Epoch: 16 January)

Event Time Altitude Azimuth Distance (km) Brightness Sun altitude
Rises 16:25:59 0° 262° (W) 2,967 ? 25.7°
Reaches altitude 10° 16:28:29 10° 259° (WSW) 1,983 ? 25.7°
Maximum altitude 16:32:54 58° 180° (S) 669 ? 25.7°
Drops below altitude 10° 16:36:58 10° 101° (E) 1,820 ? 25.7°
Sets 16:39:10 0° 97° (E) 2,697 ? 25.7°
